Simultaneous Nadir Overpasses (SNOs) Predictions

Prediction of SNOs between METOP-B and TERRA Satellite Orbit:

Table of predicted SNOs for the next 14.0 days since TLE Epoch: 5/10/2025
Index Date (METOP-B) Time (METOP-B) Lat,Lon (METOP-B) SZA (METOP-B ) Date (TERRA) Time (TERRA) Lat,Lon (TERRA) SZA (TERRA ) Distance(km) Time Diff (sec)
1 05/10/2025 06:57:52 78.28, 78.90 60.54 05/10/2025 06:58:45 78.28, 78.88 60.54 0.63 53
2 05/10/2025 07:48:23 -78.69,-111.45 119.01 05/10/2025 07:47:56 -78.69,-111.43 119.02 0.36 27
3 05/12/2025 20:37:25 -78.48, 55.03 119.90 05/12/2025 20:37:50 -78.47, 54.96 119.90 1.43 25
4 05/12/2025 21:27:55 78.87,-135.31 60.54 05/12/2025 21:26:59 78.86,-135.36 60.53 1.32 56
5 05/15/2025 09:28:06 -73.71,-154.17 124.99 05/15/2025 09:29:20 -73.51,-153.06 125.28 41.76 74
6 05/15/2025 10:17:00 78.53, 30.38 59.54 05/15/2025 10:16:55 78.53, 30.41 59.54 0.80 5
7 05/17/2025 23:06:04 78.21,-163.65 58.62 05/17/2025 23:06:50 78.21,-163.62 58.62 0.70 46
8 05/17/2025 23:56:35 -78.63, 6.04 120.93 05/17/2025 23:56:01 -78.64, 6.15 120.92 2.54 34
9 05/20/2025 12:45:36 -78.39, 172.42 121.73 05/20/2025 12:45:53 -78.40, 172.43 121.73 0.54 17
10 05/20/2025 13:36:05 78.81, -17.78 58.74 05/20/2025 13:35:01 78.81, -17.79 58.73 0.28 64
11 05/23/2025 01:34:42 -77.98, -22.03 122.68 05/23/2025 01:35:49 -77.99, -21.93 122.67 2.47 67



Historial Predications of SNOs between METOP-B and TERRA
